Volver al catálogo

FENGYUN 1C DEB

ActivoPO
NORAD 35160·DEBRIS·🇨🇳 China

Lanzado May 10, 1999 desde Taiyuan Satellite Launch Center

Loading…

Próximos Pases (próximas 24 horas)

TLE

ActualizadoSource: Space-Track

Época: Sep 13, 2026, 14:50 UTC

1 35160U 99025DMQ 26256.61823290  .00000881  00000-0  26700-3 0  9997
2 35160  99.1871  33.7140 0175653 156.7976 204.1262 14.36579811688776

Sigue FENGYUN 1C DEB en tiempo real con AllMySat

Download on the App Store